Погода в Мтваре

Танзания     10°17′05″S   40°11′10″E
темп.,
°C
ветер,
м/с
пор.,
м/с
влажн.,
%
обл.,
%
осадки,
мм/ч
давл.,
гПа
погр.,
м
26 июля, пн
пн2600:00+23ю813701 0.0 1019890
03:00+22ю7136671 0.0 10181036
06:00+20ю7156768 0.0 1020787
09:00+22ю8125876 0.0 1022981
12:00+27ююв68470 0.0 10201018
15:00+27юв775123 0.0 1016887
18:00+25юв9116337 0.0 1017630
21:00+24ююв7126891 0.0 1019721
27 июля, вт
вт2700:00+22ю612783 0.0 1019489
03:00+21ю612810 0.0 1017432
06:00+21ю814710 0.0 1018702
09:00+24ю812572 0.0 1021788
12:00+27ююв57460 0.0 1019666
15:00+27юв885212 0.0 1016935
18:00+25юв912679 0.0 1017583
21:00+24ююв812770 0.0 1018724
28 июля, ср
ср2800:00+23ююв712780 0.0 1018751
03:00+23ю712770 0.0 1017933
06:00+21ю611842 0.0 1018692
09:00+23ю710660 0.0 1020778
12:00+27юв56541 0.0 1019752
15:00+27вюв109599 0.0 10161000
18:00+25юв9117160 0.0 1017570
21:00+23юв7118030 0.0 1018651
29 июля, чт
чт2900:00+22ююв48863 0.0 1018458
03:00+21ю47909 0.1 1017316
06:00+20ююз47928 0.0 1019212
09:00+24ю697123 0.0 1021643
12:00+27вюв785823 0.1 10191047
15:00+27вюв896135 0.1 1017952
18:00+25юв8106612 0.0 1019682
21:00+24ююв8117380 0.1 1020736
30 июля, пт
пт3000:00+23ююв611790 0.0 1020624
03:00+22ю510874 0.0 1019505
06:00+20ю612900 0.0 1020425
09:00+24ююв812730 0.1 1022837
12:00+28юв810550 0.0 1020942
15:00+28юв910530 0.0 1018877
18:00+26юв812651 0.0 1019799
21:00+24ююв814760 0.0 1020798